EW7917 Weather Reports


Display with metric or nautical units.
time (UTC)temp
F
wind
direction
speed
MPH
gust
MPH
rain 1hr
in
rain 24hr
in
rain mn
in
humidity
%
barometer
mb
20180122101901 30 106 1.0 5.0 0.00 0.01 0.00 89 1024.1
20180122100359 30 58 0.0 0.0 0.00 0.01 0.00 89 1023.9
20180122094857 30 73 0.0 2.0 0.00 0.01 0.00 88 1023.9
20180122093356 30 252 0.0 2.0 0.00 0.01 0.00 87 1023.7
20180122091859 30 252 0.0 2.0 0.00 0.01 0.00 88 1023.7
20180122090354 30 252 0.0 0.0 0.00 0.01 0.00 88 1023.6
20180122084853 30 252 0.0 0.0 0.00 0.01 0.00 87 1023.6
20180122083350 30 252 0.0 0.0 0.00 0.01 0.00 87 1023.5
20180122081850 30 252 0.0 0.0 0.00 0.01 0.00 88 1023.5
20180122080347 30 252 0.0 0.0 0.00 0.01 0.00 87 1023.4
20180122074846 30 252 0.0 2.0 0.00 0.01 0.00 89 1023.4
20180122073347 30 252 0.0 1.0 0.00 0.01 0.00 89 1023.4
20180122071843 30 252 0.0 0.0 0.00 0.01 0.00 88 1023.4
20180122070342 29 252 0.0 0.0 0.00 0.01 0.00 90 1023.2
20180122064842 29 252 0.0 0.0 0.00 0.01 0.00 89 1023.4
20180122063340 29 252 0.0 0.0 0.00 0.01 0.00 90 1023.3
20180122061838 29 252 0.0 0.0 0.00 0.01 0.00 89 1023.2
20180122060338 29 252 0.0 0.0 0.00 0.01 0.00 88 1023.0
20180122054837 29 252 0.0 0.0 0.00 0.01 0.00 88 1023.0
20180122053336 29 252 0.0 0.0 0.00 0.01 0.00 88 1023.0
20180122051834 29 252 0.0 0.0 0.00 0.01 0.00 89 1023.0
20180122050334 29 252 0.0 0.0 0.00 0.01 0.00 89 1023.2
20180122044829 28 252 0.0 0.0 0.00 0.01 0.01 88 1023.1
20180122043331 28 252 0.0 0.0 0.00 0.01 0.01 88 1023.1
20180122041829 28 252 0.0 0.0 0.00 0.01 0.01 86 1023.1
20180122040326 29 252 0.0 0.0 0.00 0.01 0.01 86 1022.9
20180122034827 29 252 0.0 0.0 0.00 0.01 0.01 86 1022.8
20180122033322 30 252 0.0 0.0 0.00 0.01 0.01 85 1022.8
20180122031823 30 226 0.0 0.0 0.00 0.01 0.01 83 1022.8
20180122030322 31 248 0.0 0.0 0.00 0.01 0.01 83 1022.9
20180122024821 31 235 0.0 0.0 0.00 0.01 0.01 83 1022.9
20180122023321 31 252 0.0 0.0 0.00 0.01 0.01 82 1022.9
20180122021821 31 252 0.0 0.0 0.00 0.01 0.01 83 1022.8
20180122020320 31 220 0.0 0.0 0.00 0.01 0.01 84 1022.7
20180122014817 31 229 0.0 0.0 0.00 0.02 0.01 83 1022.8
20180122013315 31 228 0.0 0.0 0.00 0.02 0.01 84 1022.7
20180122011815 31 251 0.0 0.0 0.00 0.02 0.01 84 1022.5
20180122010316 32 245 0.0 0.0 0.00 0.02 0.01 83 1022.5
20180122004815 32 251 0.0 0.0 0.00 0.02 0.01 83 1022.4
20180122003312 32 251 0.0 0.0 0.00 0.02 0.01 83 1022.4
20180122001812 32 251 0.0 0.0 0.00 0.02 0.01 83 1022.5
20180122000312 33 252 0.0 0.0 0.00 0.02 0.01 84 1022.3
20180121234813 33 252 0.0 0.0 0.00 0.02 0.01 84 1022.3
20180121233313 33 252 0.0 0.0 0.00 0.02 0.01 82 1022.3
20180121231811 33 252 0.0 0.0 0.00 0.02 0.01 81 1022.2
20180121230310 34 251 0.0 0.0 0.00 0.02 0.01 79 1022.1
20180121224810 34 252 0.0 1.0 0.00 0.03 0.01 77 1022.0
20180121223304 35 250 0.0 0.0 0.00 0.03 0.01 77 1021.9
20180121221803 35 250 0.0 1.0 0.00 0.03 0.01 73 1021.7
20180121220304 36 232 0.0 1.0 0.00 0.03 0.01 73 1021.7
20180121214759 37 227 2.0 6.0 0.00 0.05 0.01 68 1021.4
20180121213259 38 245 1.0 6.0 0.00 0.05 0.01 68 1021.2
20180121211800 38 236 2.0 5.0 0.00 0.05 0.01 66 1021.2
20180121210356 38 243 1.0 7.0 0.00 0.05 0.01 67 1020.9
20180121204753 39 229 1.0 5.0 0.00 0.07 0.01 65 1020.7
20180121203253 39 231 2.0 5.0 0.00 0.07 0.01 65 1020.5
20180121201756 39 241 2.0 5.0 0.00 0.07 0.01 66 1020.4
20180121200252 39 216 2.0 7.0 0.00 0.07 0.01 65 1020.3
20180121194751 39 233 1.0 5.0 0.00 0.08 0.01 64 1020.0
20180121193255 39 245 2.0 5.0 0.00 0.08 0.01 64 1020.0
20180121191754 39 231 2.0 6.0 0.00 0.08 0.01 64 1019.9
20180121190250 39 220 3.0 6.0 0.00 0.08 0.01 63 1019.7
20180121184747 39 232 2.0 7.0 0.00 0.09 0.01 63 1019.7
20180121183245 39 96 1.0 6.0 0.00 0.09 0.01 63 1019.6
20180121181744 39 223 3.0 8.0 0.00 0.09 0.01 63 1019.5
20180121180243 39 250 1.0 8.0 0.01 0.09 0.01 64 1019.5
20180121174743 39 245 3.0 8.0 0.01 0.09 0.01 63 1019.7
20180121173342 39 227 3.0 9.0 0.01 0.09 0.01 62 1019.9
20180121171745 39 245 2.0 10.0 0.01 0.09 0.01 64 1019.8
20180121170243 39 243 2.0 7.0 0.00 0.08 0.00 64 1019.8
20180121164740 39 241 2.0 11.0 0.00 0.08 0.00 63 1019.8
20180121163239 39 235 4.0 11.0 0.00 0.08 0.00 65 1020.1
20180121161736 39 247 3.0 8.0 0.00 0.08 0.00 68 1020.1
20180121160235 38 227 3.0 9.0 0.00 0.08 0.00 70 1020.1
20180121154733 38 243 4.0 9.0 0.00 0.08 0.00 70 1020.3
20180121153223 37 233 1.0 8.0 0.00 0.08 0.00 72 1020.4
20180121151724 36 258 4.0 7.0 0.00 0.08 0.00 76 1020.5
20180121150219 35 243 1.0 7.0 0.00 0.08 0.00 78 1020.4
20180121144714 34 248 3.0 7.0 0.00 0.08 0.00 79 1020.3
20180121143211 34 223 2.0 5.0 0.00 0.08 0.00 81 1019.9
20180121141709 32 251 2.0 6.0 0.00 0.08 0.00 85 1019.8
20180121140210 31 244 0.0 2.0 0.00 0.08 0.00 87 1019.7
20180121134708 31 233 2.0 3.0 0.00 0.08 0.00 87 1019.7
20180121133206 30 241 0.0 4.0 0.00 0.08 0.00 87 1019.4
20180121131704 31 241 0.0 2.0 0.00 0.08 0.00 85 1019.4
20180121130204 32 241 0.0 2.0 0.00 0.08 0.00 83 1019.1
20180121124700 33 241 1.0 5.0 0.00 0.08 0.00 82 1018.9
20180121123159 34 342 0.0 4.0 0.00 0.08 0.00 81 1018.6
20180121121700 34 214 1.0 5.0 0.00 0.08 0.00 81 1018.6
20180121120154 34 198 0.0 7.0 0.00 0.08 0.00 83 1018.5
20180121114650 33 212 1.0 3.0 0.00 0.08 0.00 85 1018.4
20180121113148 32 358 1.0 8.0 0.00 0.08 0.00 87 1018.2
20180121111645 31 222 3.0 6.0 0.00 0.08 0.00 90 1018.1
20180121110143 30 162 0.0 0.0 0.00 0.08 0.00 90 1017.9
20180121104643 30 162 0.0 2.0 0.00 0.08 0.00 90 1017.7
20180121103138 30 162 0.0 2.0 0.00 0.08 0.00 89 1017.3